| time (UTC) | temp F | wind direction | speed MPH | gust MPH | rain 1hr in | rain 24hr in | rain mn in | humidity % | barometer mb |
| 20260508083703 | 54 | 125 | 1.0 | 3.0 | 0.00 | 0.00 | 0.00 | 81 | 1016.3 |
| 20260508083203 | 53 | 90 | 1.0 | 3.0 | 0.00 | 0.00 | 0.00 | 82 | 1016.3 |
| 20260508080204 | 54 | 171 | 0.0 | 0.0 | 0.00 | 0.00 | 0.00 | 81 | 1016.3 |
| 20260508073703 | 55 | 171 | 0.0 | 0.0 | 0.00 | 0.00 | 0.00 | 79 | 1016.4 |
| 20260508073204 | 55 | 171 | 0.0 | 2.0 | 0.00 | 0.00 | 0.00 | 79 | 1016.4 |
| 20260508070703 | 55 | 110 | 1.0 | 3.0 | 0.00 | 0.00 | 0.00 | 78 | 1016.2 |
| 20260508070204 | 56 | 121 | 0.0 | 5.0 | 0.00 | 0.00 | 0.00 | 78 | 1016.3 |
| 20260508063704 | 56 | 105 | 1.0 | 2.0 | 0.00 | 0.00 | 0.00 | 77 | 1016.4 |
| 20260508063204 | 56 | 124 | 1.0 | 6.0 | 0.00 | 0.00 | 0.00 | 77 | 1016.3 |
| 20260508060704 | 56 | 106 | 2.0 | 3.0 | 0.00 | 0.00 | 0.00 | 75 | 1016.4 |
| 20260508060204 | 56 | 90 | 2.0 | 3.0 | 0.00 | 0.00 | 0.00 | 75 | 1016.4 |
| 20260508053704 | 56 | 51 | 1.0 | 2.0 | 0.00 | 0.00 | 0.00 | 74 | 1016.4 |
| 20260508053204 | 56 | 46 | 1.0 | 2.0 | 0.00 | 0.00 | 0.00 | 74 | 1016.5 |
| 20260508050704 | 57 | 46 | 0.0 | 0.0 | 0.00 | 0.00 | 0.00 | 72 | 1016.5 |
| 20260508050204 | 58 | 46 | 0.0 | 2.0 | 0.00 | 0.00 | 0.00 | 71 | 1016.5 |
| 20260508043704 | 58 | 46 | 1.0 | 2.0 | 0.00 | 0.00 | 0.00 | 69 | 1016.7 |
| 20260508040704 | 59 | 46 | 0.0 | 0.0 | 0.00 | 0.00 | 0.00 | 67 | 1016.8 |
| 20260508040204 | 60 | 46 | 0.0 | 2.0 | 0.00 | 0.00 | 0.00 | 67 | 1016.7 |
| 20260508033703 | 61 | 17 | 0.0 | 0.0 | 0.00 | 0.00 | 0.00 | 63 | 1016.5 |
| 20260508033204 | 62 | 0 | 0.0 | 2.0 | 0.00 | 0.00 | 0.00 | 62 | 1016.6 |
| 20260508030704 | 64 | 30 | 0.0 | 2.0 | 0.00 | 0.00 | 0.00 | 59 | 1016.6 |
| 20260508030204 | 64 | 30 | 0.0 | 3.0 | 0.00 | 0.00 | 0.00 | 58 | 1016.5 |
| 20260508023704 | 65 | 351 | 1.0 | 2.0 | 0.00 | 0.00 | 0.00 | 55 | 1016.8 |
| 20260508023204 | 65 | 299 | 2.0 | 3.0 | 0.00 | 0.00 | 0.00 | 56 | 1016.7 |
| 20260508020704 | 66 | 316 | 0.0 | 2.0 | 0.00 | 0.00 | 0.00 | 54 | 1016.9 |
| 20260508020203 | 66 | 300 | 1.0 | 3.0 | 0.00 | 0.00 | 0.00 | 55 | 1017.0 |
| 20260508013704 | 67 | 351 | 1.0 | 5.0 | 0.00 | 0.00 | 0.00 | 54 | 1017.0 |
| 20260508010704 | 67 | 346 | 2.0 | 3.0 | 0.00 | 0.00 | 0.00 | 52 | 1017.3 |
| 20260508010203 | 67 | 17 | 2.0 | 8.0 | 0.00 | 0.00 | 0.00 | 53 | 1017.4 |
| 20260508003704 | 68 | 330 | 3.0 | 8.0 | 0.00 | 0.00 | 0.00 | 53 | 1017.4 |
| 20260508003205 | 67 | 259 | 2.0 | 8.0 | 0.00 | 0.00 | 0.00 | 53 | 1017.5 |
| 20260508000705 | 69 | 41 | 2.0 | 6.0 | 0.00 | 0.00 | 0.00 | 51 | 1017.5 |
| 20260508000205 | 68 | 77 | 2.0 | 5.0 | 0.00 | 0.00 | 0.00 | 52 | 1017.5 |
| 20260507233204 | 70 | 355 | 2.0 | 8.0 | 0.00 | 0.00 | 0.00 | 50 | 1017.7 |
| 20260507230704 | 69 | 298 | 2.0 | 7.0 | 0.00 | 0.00 | 0.00 | 51 | 1017.8 |
| 20260507223704 | 66 | 281 | 2.0 | 8.0 | 0.00 | 0.00 | 0.00 | 54 | 1018.3 |
| 20260507223205 | 67 | 276 | 5.0 | 9.0 | 0.00 | 0.00 | 0.00 | 53 | 1018.3 |
| 20260507220704 | 67 | 221 | 2.0 | 5.0 | 0.00 | 0.00 | 0.00 | 55 | 1018.4 |
| 20260507220203 | 66 | 273 | 2.0 | 8.0 | 0.00 | 0.00 | 0.00 | 54 | 1018.5 |
| 20260507213704 | 66 | 125 | 2.0 | 3.0 | 0.00 | 0.00 | 0.00 | 55 | 1018.7 |
| 20260507213204 | 65 | 336 | 4.0 | 9.0 | 0.00 | 0.00 | 0.00 | 55 | 1018.9 |
| 20260507210704 | 62 | 287 | 4.0 | 7.0 | 0.00 | 0.00 | 0.00 | 61 | 1019.2 |
| 20260507210206 | 63 | 280 | 5.0 | 10.0 | 0.00 | 0.00 | 0.00 | 60 | 1019.2 |
| 20260507203704 | 63 | 264 | 5.0 | 10.0 | 0.00 | 0.00 | 0.00 | 61 | 1019.4 |
| 20260507203203 | 62 | 283 | 3.0 | 9.0 | 0.00 | 0.00 | 0.00 | 61 | 1019.5 |
| 20260507200203 | 65 | 148 | 1.0 | 3.0 | 0.00 | 0.00 | 0.00 | 60 | 1019.7 |
| 20260507193704 | 61 | 271 | 3.0 | 6.0 | 0.00 | 0.00 | 0.00 | 64 | 1020.0 |
| 20260507193203 | 60 | 298 | 2.0 | 7.0 | 0.00 | 0.00 | 0.00 | 64 | 1020.0 |
| 20260507190704 | 60 | 315 | 1.0 | 7.0 | 0.00 | 0.00 | 0.00 | 66 | 1020.1 |
| 20260507190204 | 60 | 283 | 1.0 | 3.0 | 0.00 | 0.00 | 0.00 | 67 | 1020.1 |
| 20260507183704 | 59 | 97 | 1.0 | 3.0 | 0.00 | 0.00 | 0.00 | 67 | 1020.4 |
| 20260507183204 | 59 | 140 | 2.0 | 7.0 | 0.00 | 0.00 | 0.00 | 68 | 1020.4 |
| 20260507180704 | 59 | 170 | 1.0 | 3.0 | 0.00 | 0.00 | 0.00 | 67 | 1020.5 |
| 20260507180205 | 58 | 261 | 2.0 | 7.0 | 0.00 | 0.00 | 0.00 | 68 | 1020.4 |
| 20260507173704 | 57 | 292 | 2.0 | 5.0 | 0.00 | 0.00 | 0.00 | 71 | 1020.7 |
| 20260507173205 | 57 | 176 | 1.0 | 6.0 | 0.00 | 0.00 | 0.00 | 72 | 1020.6 |
| 20260507163205 | 54 | 290 | 1.0 | 3.0 | 0.00 | 0.00 | 0.00 | 78 | 1020.7 |
| 20260507160705 | 53 | 291 | 3.0 | 6.0 | 0.00 | 0.00 | 0.00 | 79 | 1020.8 |
| 20260507160205 | 53 | 293 | 3.0 | 6.0 | 0.00 | 0.00 | 0.00 | 79 | 1020.8 |
| 20260507153705 | 54 | 253 | 2.0 | 3.0 | 0.00 | 0.00 | 0.00 | 79 | 1020.9 |
| 20260507153205 | 53 | 298 | 1.0 | 7.0 | 0.00 | 0.00 | 0.00 | 80 | 1020.9 |
| 20260507150703 | 54 | 263 | 1.0 | 3.0 | 0.00 | 0.00 | 0.00 | 79 | 1020.8 |
| 20260507150205 | 54 | 232 | 2.0 | 5.0 | 0.00 | 0.00 | 0.00 | 79 | 1020.9 |
| 20260507143703 | 53 | 250 | 1.0 | 3.0 | 0.00 | 0.00 | 0.00 | 79 | 1020.8 |
| 20260507143203 | 53 | 169 | 2.0 | 6.0 | 0.00 | 0.00 | 0.00 | 80 | 1020.8 |
| 20260507140704 | 52 | 184 | 1.0 | 5.0 | 0.00 | 0.00 | 0.00 | 81 | 1020.8 |
| 20260507140204 | 52 | 171 | 1.0 | 5.0 | 0.00 | 0.00 | 0.00 | 81 | 1020.8 |
| 20260507133704 | 51 | 117 | 0.0 | 2.0 | 0.00 | 0.00 | 0.00 | 82 | 1020.6 |
| 20260507133204 | 51 | 124 | 1.0 | 5.0 | 0.00 | 0.00 | 0.00 | 82 | 1020.6 |
| 20260507130704 | 52 | 196 | 2.0 | 3.0 | 0.00 | 0.00 | 0.00 | 81 | 1020.5 |
| 20260507130204 | 52 | 169 | 1.0 | 5.0 | 0.00 | 0.00 | 0.00 | 81 | 1020.5 |
| 20260507123703 | 52 | 173 | 2.0 | 3.0 | 0.00 | 0.00 | 0.00 | 80 | 1020.6 |
| 20260507123204 | 52 | 178 | 3.0 | 8.0 | 0.00 | 0.00 | 0.00 | 80 | 1020.6 |
| 20260507120704 | 52 | 157 | 3.0 | 6.0 | 0.00 | 0.00 | 0.00 | 81 | 1020.7 |
| 20260507120204 | 52 | 152 | 2.0 | 6.0 | 0.00 | 0.00 | 0.00 | 81 | 1020.7 |
| 20260507113703 | 52 | 162 | 2.0 | 5.0 | 0.00 | 0.00 | 0.00 | 81 | 1020.9 |
| 20260507110704 | 53 | 131 | 1.0 | 2.0 | 0.00 | 0.00 | 0.00 | 83 | 1021.1 |
| 20260507110204 | 53 | 126 | 1.0 | 3.0 | 0.00 | 0.00 | 0.00 | 84 | 1021.1 |
| 20260507103704 | 53 | 126 | 1.0 | 3.0 | 0.00 | 0.00 | 0.00 | 84 | 1021.1 |
| 20260507103204 | 53 | 156 | 1.0 | 3.0 | 0.00 | 0.00 | 0.00 | 84 | 1021.2 |
| 20260507100204 | 53 | 169 | 2.0 | 5.0 | 0.00 | 0.00 | 0.00 | 85 | 1021.3 |
| 20260507093204 | 53 | 153 | 2.0 | 6.0 | 0.00 | 0.00 | 0.00 | 86 | 1021.2 |
| 20260507090204 | 53 | 231 | 0.0 | 5.0 | 0.00 | 0.00 | 0.00 | 84 | 1021.1 |